Location: West Cummington
(42.4920°N, 72.9680°W)
Time: 02:42:21
(UTC-04:00)

Cosmos 2221 - Visible Passes

Search period start: 28 July 2017 00:00
Search period end: 07 August 2017 00:00
Orbit: 594 x 616 km, 82.5° (Epoch: 26 July)

Date Brightness Start Highest point End Pass type
(mag) Time Alt. Az. Time Alt. Az. Time Alt. Az.
31 Jul 5.9 04:25:29 10° E 04:26:16 10° E 04:27:03 10° ENE visible
01 Aug 5.3 04:36:09 10° SE 04:39:03 18° E 04:41:58 10° NE visible
02 Aug 4.6 04:48:09 10° SSE 04:51:55 28° E 04:55:40 10° NNE visible
03 Aug 3.6 05:00:38 10° SSE 05:04:50 47° E 05:09:03 10° NNE visible
04 Aug 2.7 05:13:26 10° S 05:17:50 82° E 05:22:13 10° N visible
05 Aug 5.5 03:52:06 10° ESE 03:53:51 12° E 03:55:37 10° ENE visible
06 Aug 5.0 04:03:28 10° SE 04:06:40 20° E 04:09:52 10° NE visible
